Location: Czekan�w
(50.3488°N, 18.7344°E)
Time: 02:35:42
(UTC+00:00)

CZ-4C R/B - Pass Details

Date: 17 February 2020
Orbit: 641 x 1361 km, 63.4° (Epoch: 05 April)

Event Time Altitude Azimuth Distance (km) Brightness Sun altitude
Exits shadow 03:29:41 47° 304° (WNW) 1,129 2.5 -23.6°
Maximum altitude 03:30:22 49° 326° (NW) 1,112 2.6 -23.5°
Drops below altitude 10° 03:36:34 10° 41° (NE) 2,776 5.5 -22.5°
Sets 03:39:33 0° 46° (NE) 3,852 6.5 -22.0°
